{"data":{"norad_id":59123,"epoch":"2026-09-22T08:36:12.983040Z","epoch_age_seconds":97438,"freshness":"FRESH","line1":"1 59123U 24043AB  26265.35848360  .00003797  00000+0  12535-3 0  9995","line2":"2 59123  97.5731  44.3552 0008502 257.9398 102.0890 15.32023171141905","mean_motion":15.32023171,"eccentricity":0.0008502,"inclination_deg":97.5731,"raan_deg":44.3552,"arg_perigee_deg":257.9398,"mean_anomaly_deg":102.089,"bstar":0.00012535,"rev_number":14190,"period_min":93.993356449046,"perigee_km":463.95471232004,"apogee_km":475.59890496025,"semimajor_km":6847.9138086401,"source":"CELESTRAK","updated_at":"2026-09-23T09:00:19.177646Z"}}